Oscar 11 - Orbit

View from above orbital plane
View from above orbital plane
View from above satellite
View from above satellite

Ground track
Ground track

The orbit data is extracted from the following two-line orbital elements,

1 14781U 84021B   13169.18871715  .00000319  00000-0  48085-4 0  2089
2 14781 097.9031 230.4868 0007416 285.0499 074.9892 14.80914369574086
Epoch (UTC): 18 June 2013 04:31:45
Eccentricity: 0.0007416
inclination: 97.9031°
perigee height: 621 km
apogee height: 631 km
right ascension of ascending node: 230.4868°
argument of perigee: 285.0499°
revolutions per day: 14.80914369
mean anomaly at epoch: 74.9892°
orbit number at epoch: 57408

The dashed part of the orbit path shows where the satellite is in the earth's shadow,  

Developed and maintained by Chris Peat, Heavens-Above GmbH. Please read the updated FAQ before sending e-mail. Imprint. DLR